Time,TemperatureF,DewpointF,PressureIn,WindDirection,WindDirectionDegrees,WindSpeedMPH,WindSpeedGustMPH,Humidity,HourlyPrecipIn,Conditions,Clouds,dailyrainin,SoftwareType,DateUTC
2013-07-03 00:02:00,61.0,61.0,30.16,NNW,335,5.0,13.0,100,0.00,,,0.00,,2013-07-03 07:02:00,
2013-07-03 00:12:00,61.0,61.0,30.16,NW,306,5.0,12.0,100,0.00,,,0.00,,2013-07-03 07:12:00,
2013-07-03 00:22:00,60.0,60.0,30.16,NW,323,6.0,10.0,100,0.00,,,0.00,,2013-07-03 07:22:00,
2013-07-03 00:44:00,60.0,60.0,30.16,WNW,290,6.0,12.0,100,0.00,,,0.00,,2013-07-03 07:44:00,
2013-07-03 01:23:00,60.0,60.0,30.17,WNW,284,4.0,11.0,100,0.00,,,0.00,,2013-07-03 08:23:00,
2013-07-03 01:52:00,60.0,60.0,30.17,NW,311,5.0,9.0,100,0.00,,,0.00,,2013-07-03 08:52:00,
2013-07-03 02:02:00,60.0,60.0,30.17,NW,311,5.0,9.0,100,0.00,,,0.00,,2013-07-03 09:02:00,
2013-07-03 02:13:00,60.0,60.0,30.16,NNW,327,5.0,11.0,100,0.00,,,0.00,,2013-07-03 09:13:00,
2013-07-03 02:22:00,60.0,60.0,30.16,NNW,327,5.0,11.0,100,0.00,,,0.00,,2013-07-03 09:22:00,
2013-07-03 02:33:00,60.0,60.0,30.16,NW,317,3.0,9.0,100,0.00,,,0.00,,2013-07-03 09:33:00,
2013-07-03 02:44:00,60.0,60.0,30.16,NW,319,6.0,9.0,100,0.00,,,0.00,,2013-07-03 09:44:00,
2013-07-03 03:02:00,60.0,60.0,30.16,NW,320,7.0,10.0,100,0.00,,,0.00,,2013-07-03 10:02:00,
2013-07-03 03:12:00,60.0,60.0,30.16,NNW,340,4.0,12.0,100,0.00,,,0.00,,2013-07-03 10:12:00,
2013-07-03 03:22:00,60.0,60.0,30.17,NW,326,7.0,11.0,100,0.00,,,0.00,,2013-07-03 10:22:00,
2013-07-03 03:34:00,60.0,60.0,30.17,NW,326,7.0,11.0,100,0.00,,,0.00,,2013-07-03 10:34:00,
2013-07-03 03:43:00,59.0,59.0,30.17,NW,313,6.0,9.0,100,0.00,,,0.00,,2013-07-03 10:43:00,
2013-07-03 03:52:00,59.0,59.0,30.17,NW,325,6.0,9.0,100,0.00,,,0.00,,2013-07-03 10:52:00,
2013-07-03 04:02:00,59.0,59.0,30.17,NW,325,6.0,9.0,100,0.00,,,0.00,,2013-07-03 11:02:00,
2013-07-03 04:12:00,59.0,59.0,30.17,NNW,327,4.0,9.0,100,0.00,,,0.00,,2013-07-03 11:12:00,
2013-07-03 04:22:00,58.0,58.0,30.17,NNW,342,1.0,5.0,100,0.00,,,0.00,,2013-07-03 11:22:00,
2013-07-03 04:34:00,58.0,58.0,30.17,NNW,342,1.0,5.0,100,0.00,,,0.00,,2013-07-03 11:34:00,
2013-07-03 04:42:00,58.0,58.0,30.18,NNW,340,2.0,4.0,100,0.00,,,0.00,,2013-07-03 11:42:00,
2013-07-03 05:02:00,58.0,58.0,30.18,NNE,23,0.0,2.0,100,0.00,,,0.00,,2013-07-03 12:02:00,
2013-07-03 05:34:00,58.0,58.0,30.19,North,355,1.0,4.0,100,0.00,,,0.00,,2013-07-03 12:34:00,
2013-07-03 05:43:00,58.0,58.0,30.18,North,5,3.0,4.0,100,0.00,,,0.00,,2013-07-03 12:43:00,
2013-07-03 05:53:00,58.0,58.0,30.19,NE,46,2.0,6.0,100,0.00,,,0.00,,2013-07-03 12:53:00,
2013-07-03 06:02:00,58.0,58.0,30.19,NE,46,2.0,6.0,100,0.00,,,0.00,,2013-07-03 13:02:00,
2013-07-03 06:13:00,58.0,58.0,30.19,NE,49,0.0,3.0,100,0.00,,,0.00,,2013-07-03 13:13:00,
2013-07-03 06:33:00,57.0,57.0,30.20,NE,38,0.0,2.0,100,0.00,,,0.00,,2013-07-03 13:33:00,
2013-07-03 06:53:00,57.0,57.0,30.20,NE,38,0.0,2.0,100,0.00,,,0.00,,2013-07-03 13:53:00,
2013-07-03 07:02:00,57.0,57.0,30.19,NNW,346,0.0,2.0,100,0.00,,,0.00,,2013-07-03 14:02:00,
2013-07-03 07:22:00,58.0,58.0,30.19,NNE,29,1.0,3.0,100,0.00,,,0.00,,2013-07-03 14:22:00,
2013-07-03 07:33:00,59.0,59.0,30.20,NE,39,1.0,3.0,100,0.00,,,0.00,,2013-07-03 14:33:00,
2013-07-03 07:44:00,60.0,60.0,30.19,NNW,344,3.0,6.0,100,0.00,,,0.00,,2013-07-03 14:44:00,
2013-07-03 07:53:00,60.0,60.0,30.19,WNW,300,3.0,6.0,100,0.00,,,0.00,,2013-07-03 14:53:00,
2013-07-03 08:02:00,60.0,60.0,30.19,WNW,300,3.0,6.0,100,0.00,,,0.00,,2013-07-03 15:02:00,
2013-07-03 08:13:00,61.0,61.0,30.19,West,273,4.0,7.0,100,0.00,,,0.00,,2013-07-03 15:13:00,
2013-07-03 08:34:00,60.0,60.0,30.20,WNW,302,6.0,10.0,100,0.00,,,0.00,,2013-07-03 15:34:00,
2013-07-03 09:12:00,61.0,61.0,30.20,NNW,335,11.0,17.0,100,0.00,,,0.00,,2013-07-03 16:12:00,
2013-07-03 09:22:00,61.0,61.0,30.20,NNW,335,11.0,17.0,100,0.00,,,0.00,,2013-07-03 16:22:00,
2013-07-03 09:33:00,61.0,61.0,30.20,NNW,335,11.0,17.0,100,0.00,,,0.00,,2013-07-03 16:33:00,
2013-07-03 09:44:00,62.0,62.0,30.20,NW,319,12.0,17.0,100,0.00,,,0.00,,2013-07-03 16:44:00,
2013-07-03 09:53:00,62.0,62.0,30.20,NW,319,12.0,17.0,100,0.00,,,0.00,,2013-07-03 16:53:00,
2013-07-03 10:12:00,62.0,62.0,30.20,WNW,292,14.0,20.0,100,0.00,,,0.00,,2013-07-03 17:12:00,
2013-07-03 10:21:00,62.0,62.0,30.20,WNW,292,14.0,20.0,100,0.00,,,0.00,,2013-07-03 17:21:00,
2013-07-03 10:35:00,62.0,62.0,30.20,NNW,327,12.0,20.0,100,0.00,,,0.00,,2013-07-03 17:35:00,
2013-07-03 10:52:00,63.0,63.0,30.20,WNW,302,12.0,23.0,100,0.00,,,0.00,,2013-07-03 17:52:00,
2013-07-03 11:13:00,63.0,63.0,30.20,WNW,296,15.0,28.0,100,0.00,,,0.00,,2013-07-03 18:13:00,
2013-07-03 11:33:00,63.0,63.0,30.20,NNW,332,16.0,24.0,100,0.00,,,0.00,,2013-07-03 18:33:00,
2013-07-03 11:44:00,63.0,63.0,30.21,NW,305,16.0,24.0,100,0.00,,,0.00,,2013-07-03 18:44:00,
2013-07-03 11:53:00,63.0,63.0,30.21,NW,305,16.0,24.0,100,0.00,,,0.00,,2013-07-03 18:53:00,
2013-07-03 12:02:00,63.0,63.0,30.21,NW,315,16.0,26.0,100,0.00,,,0.00,,2013-07-03 19:02:00,
2013-07-03 12:13:00,63.0,63.0,30.20,WNW,294,16.0,28.0,100,0.00,,,0.00,,2013-07-03 19:13:00,
2013-07-03 12:24:00,64.0,64.0,30.20,WNW,300,16.0,26.0,100,0.00,,,0.00,,2013-07-03 19:24:00,
2013-07-03 12:34:00,64.0,64.0,30.20,WNW,300,16.0,26.0,100,0.00,,,0.00,,2013-07-03 19:34:00,
2013-07-03 12:44:00,63.0,63.0,30.21,NNW,331,18.0,28.0,100,0.00,,,0.00,,2013-07-03 19:44:00,
2013-07-03 14:11:00,63.0,63.0,30.20,NW,310,17.0,28.0,100,0.00,,,0.00,,2013-07-03 21:11:00,
2013-07-03 14:52:00,64.0,64.0,30.19,WNW,303,18.0,31.0,100,0.00,,,0.00,,2013-07-03 21:52:00,
2013-07-03 15:22:00,64.0,64.0,30.19,WNW,300,15.0,33.0,100,0.00,,,0.00,,2013-07-03 22:22:00,
2013-07-03 16:02:00,63.0,63.0,30.19,NW,323,16.0,29.0,100,0.00,,,0.00,,2013-07-03 23:02:00,
2013-07-03 16:34:00,63.0,63.0,30.19,WNW,296,15.0,27.0,100,0.00,,,0.00,,2013-07-03 23:34:00,
2013-07-03 16:43:00,63.0,63.0,30.19,NW,312,16.0,30.0,100,0.00,,,0.00,,2013-07-03 23:43:00,
2013-07-03 16:52:00,63.0,63.0,30.19,NW,326,17.0,28.0,100,0.00,,,0.00,,2013-07-03 23:52:00,
2013-07-03 17:02:00,63.0,63.0,30.19,NW,326,17.0,28.0,100,0.00,,,0.00,,2013-07-04 00:02:00,
2013-07-03 17:11:00,63.0,63.0,30.18,NNW,334,18.0,24.0,100,0.00,,,0.00,,2013-07-04 00:11:00,
2013-07-03 17:22:00,63.0,63.0,30.18,NNW,334,18.0,24.0,100,0.00,,,0.00,,2013-07-04 00:22:00,
2013-07-03 17:33:00,63.0,63.0,30.17,NNW,332,16.0,29.0,100,0.00,,,0.00,,2013-07-04 00:33:00,
2013-07-03 17:43:00,63.0,63.0,30.17,NW,323,19.0,33.0,100,0.00,,,0.00,,2013-07-04 00:43:00,
2013-07-03 17:53:00,63.0,63.0,30.17,NW,306,12.0,28.0,100,0.00,,,0.00,,2013-07-04 00:53:00,
2013-07-03 18:02:00,63.0,63.0,30.17,NW,306,12.0,28.0,100,0.00,,,0.00,,2013-07-04 01:02:00,
2013-07-03 18:12:00,62.0,62.0,30.17,NW,319,14.0,27.0,100,0.00,,,0.00,,2013-07-04 01:12:00,
2013-07-03 18:22:00,62.0,62.0,30.17,NW,319,14.0,27.0,100,0.00,,,0.00,,2013-07-04 01:22:00,
2013-07-03 18:43:00,62.0,62.0,30.17,NW,319,12.0,22.0,100,0.00,,,0.00,,2013-07-04 01:43:00,
2013-07-03 18:52:00,62.0,62.0,30.18,NW,319,14.0,26.0,100,0.00,,,0.00,,2013-07-04 01:52:00,
2013-07-03 19:03:00,62.0,62.0,30.18,NW,319,14.0,26.0,100,0.00,,,0.00,,2013-07-04 02:03:00,
2013-07-03 19:12:00,62.0,62.0,30.18,NW,304,11.0,20.0,100,0.00,,,0.00,,2013-07-04 02:12:00,
2013-07-03 19:22:00,62.0,62.0,30.18,NW,304,11.0,20.0,100,0.00,,,0.00,,2013-07-04 02:22:00,
2013-07-03 19:34:00,61.0,61.0,30.17,NW,308,13.0,22.0,100,0.00,,,0.00,,2013-07-04 02:34:00,
2013-07-03 19:44:00,60.0,60.0,30.19,WNW,288,10.0,21.0,100,0.00,,,0.00,,2013-07-04 02:44:00,
2013-07-03 19:52:00,60.0,60.0,30.18,NNW,329,8.0,21.0,100,0.00,,,0.00,,2013-07-04 02:52:00,
2013-07-03 20:02:00,60.0,60.0,30.18,NNW,329,8.0,21.0,100,0.00,,,0.00,,2013-07-04 03:02:00,
2013-07-03 20:12:00,60.0,60.0,30.18,WNW,284,10.0,17.0,100,0.00,,,0.00,,2013-07-04 03:12:00,
2013-07-03 20:23:00,60.0,60.0,30.18,WNW,284,10.0,17.0,100,0.00,,,0.00,,2013-07-04 03:23:00,
2013-07-03 20:34:00,60.0,60.0,30.18,NNW,345,11.0,21.0,100,0.00,,,0.00,,2013-07-04 03:34:00,
2013-07-03 20:44:00,60.0,60.0,30.18,North,355,10.0,18.0,100,0.00,,,0.00,,2013-07-04 03:44:00,
2013-07-03 21:01:00,60.0,60.0,30.17,NW,306,11.0,21.0,100,0.00,,,0.00,,2013-07-04 04:01:00,
2013-07-03 21:11:00,60.0,60.0,30.17,NNW,336,14.0,21.0,100,0.00,,,0.00,,2013-07-04 04:11:00,
2013-07-03 21:22:00,60.0,60.0,30.18,NNW,331,11.0,17.0,100,0.00,,,0.00,,2013-07-04 04:22:00,
2013-07-03 21:33:00,60.0,60.0,30.18,NNW,331,11.0,17.0,100,0.00,,,0.00,,2013-07-04 04:33:00,
2013-07-03 21:43:00,59.0,59.0,30.18,NW,312,9.0,19.0,100,0.00,,,0.00,,2013-07-04 04:43:00,
2013-07-03 21:52:00,59.0,59.0,30.18,WNW,298,12.0,16.0,100,0.00,,,0.00,,2013-07-04 04:52:00,
2013-07-03 22:01:00,59.0,59.0,30.18,WNW,298,12.0,16.0,100,0.00,,,0.00,,2013-07-04 05:01:00,
2013-07-03 22:12:00,59.0,59.0,30.19,NW,306,11.0,15.0,100,0.00,,,0.00,,2013-07-04 05:12:00,
2013-07-03 22:21:00,59.0,59.0,30.19,NNW,338,11.0,16.0,100,0.00,,,0.00,,2013-07-04 05:21:00,
2013-07-03 22:32:00,59.0,59.0,30.19,NNW,338,11.0,16.0,100,0.00,,,0.00,,2013-07-04 05:32:00,
2013-07-03 22:42:00,59.0,59.0,30.19,NNW,327,10.0,16.0,100,0.00,,,0.00,,2013-07-04 05:42:00,
2013-07-03 22:52:00,59.0,59.0,30.19,NNW,327,10.0,16.0,100,0.00,,,0.00,,2013-07-04 05:52:00,
2013-07-03 23:01:00,59.0,59.0,30.19,NW,304,12.0,16.0,100,0.00,,,0.00,,2013-07-04 06:01:00,
2013-07-03 23:11:00,59.0,59.0,30.19,NNW,329,8.0,14.0,100,0.00,,,0.00,,2013-07-04 06:11:00,
2013-07-03 23:22:00,59.0,59.0,30.19,NW,304,8.0,14.0,100,0.00,,,0.00,,2013-07-04 06:22:00,
2013-07-03 23:33:00,59.0,59.0,30.19,NW,304,8.0,14.0,100,0.00,,,0.00,,2013-07-04 06:33:00,
2013-07-03 23:43:00,59.0,59.0,30.19,NW,320,9.0,18.0,100,0.00,,,0.00,,2013-07-04 06:43:00,
2013-07-03 23:52:00,59.0,59.0,30.19,NNW,339,5.0,14.0,100,0.00,,,0.00,,2013-07-04 06:52:00,